Meteo orario Abiego

Oggi, 14 Giugno, Lunedi

Tempo Temperatura Precipitazioni Vento Pressione Umidità
00:00 +23°C° 0 mm 2 m/s 709 mm Hg 47%
01:00 +21°C° 0 mm 2 m/s 709 mm Hg 49%
02:00 +21°C° 0 mm 2 m/s 709 mm Hg 51%
03:00 +20°C° 0 mm 2 m/s 709 mm Hg 53%
04:00 +22°C° 0 mm 1 m/s 709 mm Hg 52%
05:00 +23°C° 0 mm 1 m/s 709 mm Hg 51%
06:00 +23°C° 0 mm 1 m/s 709 mm Hg 48%
07:00 +26°C° 0 mm 1 m/s 709 mm Hg 42%
08:00 +28°C° 0 mm 1 m/s 710 mm Hg 36%
09:00 +31°C° 0 mm 1 m/s 710 mm Hg 29%
10:00 +32°C° 0 mm 2 m/s 710 mm Hg 27%
11:00 +34°C° 0 mm 2 m/s 710 mm Hg 24%
12:00 +35°C° 0 mm 3 m/s 710 mm Hg 22%
13:00 +35°C° 0 mm 3 m/s 709 mm Hg 21%
14:00 +36°C° 0 mm 3 m/s 709 mm Hg 20%
15:00 +36°C° 0 mm 4 m/s 708 mm Hg 19%
16:00 +35°C° 0 mm 3 m/s 708 mm Hg 21%
17:00 +34°C° 0 mm 3 m/s 708 mm Hg 24%
18:00 +32°C° 0 mm 2 m/s 708 mm Hg 27%
19:00 +30°C° 0 mm 3 m/s 708 mm Hg 35%
20:00 +27°C° 0 mm 3 m/s 708 mm Hg 43%
21:00 +24°C° 0 mm 3 m/s 708 mm Hg 51%
22:00 +22°C° 0 mm 3 m/s 708 mm Hg 52%
23:00 +23°C° 0 mm 2 m/s 708 mm Hg 53%

Domani, 15 Giugno, Martedi

Tempo Temperatura Precipitazioni Vento Pressione Umidità
00:00 +21°C° 0 mm 2 m/s 708 mm Hg 54%
01:00 +21°C° 0 mm 2 m/s 708 mm Hg 54%
02:00 +20°C° 0 mm 2 m/s 708 mm Hg 54%
03:00 +20°C° 0 mm 2 m/s 708 mm Hg 54%
04:00 +22°C° 0 mm 1 m/s 708 mm Hg 52%
05:00 +22°C° 0 mm 1 m/s 708 mm Hg 50%
06:00 +23°C° 0 mm 1 m/s 708 mm Hg 49%
07:00 +25°C° 0 mm 1 m/s 709 mm Hg 44%
08:00 +27°C° 0 mm 1 m/s 709 mm Hg 39%
09:00 +29°C° 0 mm 2 m/s 709 mm Hg 34%
10:00 +31°C° 0 mm 2 m/s 709 mm Hg 30%
11:00 +32°C° 0 mm 2 m/s 709 mm Hg 27%
12:00 +35°C° 0 mm 3 m/s 709 mm Hg 24%
13:00 +35°C° 0 mm 3 m/s 708 mm Hg 22%
14:00 +36°C° 0 mm 4 m/s 707 mm Hg 21%
15:00 +36°C° 0 mm 4 m/s 707 mm Hg 20%
16:00 +35°C° 0 mm 4 m/s 707 mm Hg 22%
17:00 +34°C° 0 mm 5 m/s 707 mm Hg 24%
18:00 +33°C° 0 mm 5 m/s 706 mm Hg 25%
19:00 +29°C° 0 mm 4 m/s 707 mm Hg 30%
20:00 +27°C° 0 mm 3 m/s 707 mm Hg 35%
21:00 +25°C° 0 mm 2 m/s 707 mm Hg 39%
22:00 +24°C° 0 mm 2 m/s 707 mm Hg 41%
23:00 +24°C° 0 mm 2 m/s 707 mm Hg 43%

Dopodomani, 16 Giugno, Mercoledi

Tempo Temperatura Precipitazioni Vento Pressione Umidità
00:00 +23°C° 0 mm 2 m/s 707 mm Hg 44%
01:00 +21°C° 0 mm 2 m/s 706 mm Hg 45%
02:00 +21°C° 0 mm 2 m/s 706 mm Hg 46%
03:00 +20°C° 0 mm 2 m/s 706 mm Hg 47%
04:00 +21°C° 0 mm 2 m/s 706 mm Hg 46%
05:00 +23°C° 0 mm 2 m/s 706 mm Hg 45%
06:00 +23°C° 0 mm 1 m/s 706 mm Hg 44%
07:00 +25°C° 0 mm 2 m/s 706 mm Hg 39%
08:00 +27°C° 0 mm 2 m/s 706 mm Hg 35%
09:00 +29°C° 0 mm 3 m/s 706 mm Hg 30%
10:00 +31°C° 0 mm 3 m/s 706 mm Hg 28%
11:00 +33°C° 0 mm 4 m/s 705 mm Hg 25%
12:00 +34°C° 0 mm 5 m/s 705 mm Hg 23%
13:00 +32°C° 0.1 mm 5 m/s 705 mm Hg 31%
14:00 +29°C° 0.1 mm 6 m/s 705 mm Hg 38%
15:00 +26°C° 0.1 mm 7 m/s 705 mm Hg 46%
16:00 +26°C° 0.2 mm 5 m/s 705 mm Hg 50%
17:00 +25°C° 0.2 mm 4 m/s 704 mm Hg 54%
18:00 +24°C° 0.2 mm 2 m/s 704 mm Hg 58%
19:00 +23°C° 0 mm 2 m/s 704 mm Hg 60%
20:00 +23°C° 0 mm 2 m/s 704 mm Hg 63%
21:00 +22°C° 0 mm 1 m/s 704 mm Hg 66%
22:00 +21°C° 0 mm 2 m/s 704 mm Hg 65%
23:00 +20°C° 0 mm 2 m/s 704 mm Hg 65%

17 Giugno, Giovedi

Tempo Temperatura Precipitazioni Vento Pressione Umidità
00:00 +20°C° 0 mm 2 m/s 703 mm Hg 65%
01:00 +19°C° 0.1 mm 2 m/s 703 mm Hg 66%
02:00 +19°C° 0.1 mm 2 m/s 703 mm Hg 66%
03:00 +19°C° 0.1 mm 2 m/s 703 mm Hg 67%
04:00 +19°C° 0 mm 2 m/s 703 mm Hg 65%
05:00 +20°C° 0 mm 2 m/s 703 mm Hg 63%
06:00 +20°C° 0 mm 2 m/s 703 mm Hg 61%
07:00 +20°C° 1 mm 2 m/s 703 mm Hg 69%
08:00 +19°C° 1 mm 2 m/s 703 mm Hg 77%
09:00 +18°C° 1 mm 2 m/s 703 mm Hg 85%
10:00 +17°C° 3.7 mm 2 m/s 703 mm Hg 86%
11:00 +17°C° 3.7 mm 2 m/s 703 mm Hg 86%
12:00 +16°C° 3.7 mm 1 m/s 703 mm Hg 87%
13:00 +18°C° 1 mm 1 m/s 703 mm Hg 83%
14:00 +19°C° 1 mm 1 m/s 703 mm Hg 80%
15:00 +19°C° 1 mm 1 m/s 703 mm Hg 76%
16:00 +20°C° 0 mm 1 m/s 703 mm Hg 73%
17:00 +20°C° 0 mm 1 m/s 703 mm Hg 70%
18:00 +19°C° 0 mm 0 m/s 703 mm Hg 66%
19:00 +20°C° 0 mm 1 m/s 704 mm Hg 71%
20:00 +19°C° 0 mm 1 m/s 704 mm Hg 75%
21:00 +18°C° 0 mm 1 m/s 704 mm Hg 79%
22:00 +18°C° 0 mm 1 m/s 704 mm Hg 79%
23:00 +18°C° 0 mm 1 m/s 704 mm Hg 79%

18 Giugno, Venerdi

Tempo Temperatura Precipitazioni Vento Pressione Umidità
00:00 +18°C° 0 mm 1 m/s 704 mm Hg 79%
01:00 +16°C° 0 mm 1 m/s 704 mm Hg 80%
02:00 +16°C° 0 mm 1 m/s 704 mm Hg 81%
03:00 +15°C° 0 mm 1 m/s 704 mm Hg 82%
04:00 +16°C° 0 mm 2 m/s 705 mm Hg 79%
05:00 +17°C° 0 mm 2 m/s 705 mm Hg 76%
06:00 +17°C° 0 mm 2 m/s 705 mm Hg 73%
07:00 +20°C° 0 mm 2 m/s 705 mm Hg 64%
08:00 +23°C° 0 mm 2 m/s 705 mm Hg 54%
09:00 +26°C° 0 mm 2 m/s 706 mm Hg 45%
10:00 +26°C° 0 mm 3 m/s 706 mm Hg 42%
11:00 +27°C° 0 mm 4 m/s 706 mm Hg 40%
12:00 +28°C° 0 mm 5 m/s 706 mm Hg 38%
13:00 +28°C° 0.2 mm 5 m/s 706 mm Hg 43%
14:00 +27°C° 0.2 mm 5 m/s 705 mm Hg 48%
15:00 +26°C° 0.2 mm 5 m/s 705 mm Hg 53%
16:00 +25°C° 0.4 mm 5 m/s 705 mm Hg 55%
17:00 +23°C° 0.4 mm 4 m/s 705 mm Hg 58%
18:00 +23°C° 0.4 mm 4 m/s 705 mm Hg 60%
19:00 +21°C° 0 mm 3 m/s 705 mm Hg 64%
20:00 +20°C° 0 mm 3 m/s 705 mm Hg 68%
21:00 +19°C° 0 mm 2 m/s 706 mm Hg 71%
22:00 +19°C° 0 mm 3 m/s 706 mm Hg 74%
23:00 +19°C° 0 mm 3 m/s 706 mm Hg 77%

19 Giugno, Sabato

Tempo Temperatura Precipitazioni Vento Pressione Umidità
00:00 +18°C° 0 mm 3 m/s 706 mm Hg 79%
01:00 +18°C° 0 mm 3 m/s 706 mm Hg 81%
02:00 +17°C° 0 mm 3 m/s 705 mm Hg 82%
03:00 +17°C° 0 mm 2 m/s 705 mm Hg 84%
04:00 +18°C° 0 mm 2 m/s 705 mm Hg 82%
05:00 +18°C° 0 mm 2 m/s 705 mm Hg 80%
06:00 +19°C° 0 mm 2 m/s 705 mm Hg 78%
07:00 +19°C° 1.1 mm 2 m/s 705 mm Hg 80%
08:00 +19°C° 1.1 mm 2 m/s 704 mm Hg 82%
09:00 +19°C° 1.1 mm 2 m/s 704 mm Hg 84%
10:00 +19°C° 2.8 mm 2 m/s 704 mm Hg 84%
11:00 +19°C° 2.8 mm 2 m/s 704 mm Hg 85%
12:00 +20°C° 2.8 mm 2 m/s 704 mm Hg 86%
13:00 +19°C° 3.8 mm 2 m/s 703 mm Hg 88%
14:00 +19°C° 3.8 mm 2 m/s 703 mm Hg 90%
15:00 +19°C° 3.8 mm 1 m/s 703 mm Hg 91%
16:00 +19°C° 0.3 mm 2 m/s 703 mm Hg 87%
17:00 +19°C° 0.3 mm 2 m/s 703 mm Hg 82%
18:00 +20°C° 0.3 mm 2 m/s 703 mm Hg 78%
19:00 +19°C° 0 mm 2 m/s 703 mm Hg 80%
20:00 +18°C° 0 mm 2 m/s 703 mm Hg 82%
21:00 +17°C° 0 mm 2 m/s 704 mm Hg 84%
22:00 +16°C° 0 mm 2 m/s 704 mm Hg 82%
23:00 +16°C° 0 mm 2 m/s 704 mm Hg 79%
Mostrare altro

Abbiamo bisogno del tuo consenso

Meteoprog e i nostri fornitori di servizi possono memorizzare e accedere a dati personali come cookie, identificatori di dispositivi o altre tecnologie simili sul tuo dispositivo e possono elaborare tali dati per personalizzare i contenuti e gli annunci, nonché fornire funzionalità dei social media e analizzarne il traffico.

  • Archiviare e/o accedere alle informazioni sul tuo dispositivo

    Cookie, identificatori di dispositivi o altre informazioni possono essere memorizzati o resi accessibili sul tuo dispositivo per le finalità sopra indicate.

  • Annunci e contenuti personalizzati, misurazione di annunci e contenuti, approfondimenti sul pubblico e sviluppo di prodotti

    Gli annunci e i contenuti possono essere personalizzati in base a un profilo. È possibile aggiungere più dati per personalizzare meglio annunci e contenuti. È possibile misurare il rendimento degli annunci e dei contenuti. È possibile ricavare informazioni sul pubblico che ha visto gli annunci e i contenuti. Tali dati possono essere utilizzati per sviluppare o migliorare l'esperienza, i sistemi e il software dell'utente.

Cliccando su “Accetto”, acconsenti all'uso di cookie, identificatori di dispositivo, web beacon o altre tecnologie simili. Puoi modificare le impostazioni nel browser del tuo dispositivo.

Per determinati scopi, è possibile fare affidamento su interessi legali, piuttosto che sul consenso. Puoi approfondire questo argomento consultando la nostra Informativa sulla privacy e sui cookie.